Regional Weather Roundup
Issued by NWS

Home | Current Version | Previous Version | Graphics & Text | Print | Product List | Glossary On
Versions: 1 2 3 4 5 6 7 8 9 10 11 12 13 14 15 16 17 18 19 20 21 22 23 24 25 26 27
000
ASUS45 KBOU 170906
RWRCO

WEATHER ROUNDUP FOR COLORADO
NATIONAL WEATHER SERVICE DENVER/BOULDER CO
300 AM MDT THU APR 17 2014

NOTE: "FAIR" INDICATES FEW OR NO CLOUDS BELOW 12000 FEET WITH NO
SIGNIFICANT WEATHER AND/OR OBSTRUCTIONS TO VISIBILITY.

COZ001>005-013-030-031-171000-
...NORTHWEST COLORADO...

CITY           SKY/WX    TMP DP  RH WIND       PRES   REMARKS
CRAIG          CLEAR     23  18  81 CALM      30.05S
HAYDEN         PTCLDY    28  16  59 E8        30.06S WCI  20
MEEKER         PTCLDY    32  20  61 CALM      30.05S
MOUNT WERNER   NOT AVBL
STEAMBOAT SPGS CLOUDY    29  17  61 CALM      30.04F
WALDEN         MOCLDY    23  16  74 E3        30.05S
$$

COZ006>008-011-171000-
...WEST CENTRAL VALLEYS...

CITY           SKY/WX    TMP DP  RH WIND       PRES   REMARKS
GRAND JUNCTION CLEAR     39  21  48 E14       29.99S
MONTROSE       CLEAR     35  25  66 SE8       30.05R WCI  29
EAGLE          PTCLDY    30  21  69 SE3       30.09R
RIFLE          MOCLDY    34  25  69 CALM      30.03S
DELTA          CLEAR     36  22  57 E5        30.03S
NUCLA            N/A     34  27  75 E9        30.07S WCI  26
$$

COZ017>023-064>068-171000-
...SOUTHWEST COLORADO...

CITY           SKY/WX    TMP DP  RH WIND       PRES   REMARKS
DURANGO        CLEAR     33  20  58 N7        30.02S WCI  27
CORTEZ         CLEAR     27  20  75 NE9       30.04S WCI  18
PAGOSA SPRINGS CLEAR     31  23  70 CALM      30.05S
TELLURIDE      PTCLDY    30  23  74 SE5       30.10R WCI  25
WOLF CREEK PAS CLEAR     19  16  86 NE12      30.12F WCI   7
$$

COZ009-010-012-014-032>034-037-058>063-171000-
...CENTRAL COLORADO...

CITY           SKY/WX    TMP DP  RH WIND       PRES   REMARKS
ASPEN          PTCLDY    30  16  56 SW9       30.06R WCI  22
BUENA VISTA    CLOUDY    29  28  94 SE3       30.12S
COPPER MTN     PTCLDY    23  12  63 SW9       30.10F WCI  13
BERTHOUD PASS  FAIR      14   5  67 W16G23    30.09F WCI  -2
COTTONWOOD PAS CLOUDY    28  27  93 CALM      30.12S
GUNNISON       PTCLDY    27  18  69 N5        30.11R WCI  21
KREMMLING      CLOUDY    27  21  80 CALM      30.08R
LEADVILLE      CLOUDY    22  21  96 CALM      30.10S
MONARCH PASS   FOG       19  16  86 MISG      30.21F VSB<1/4
SALIDA         CLOUDY    33  31  94 SE3       30.20S
SUNLIGHT       CLOUDY    28  12  50 CALM      30.12S
WILKERSON PASS CLOUDY    21  19  93 SW6       30.14S FOG     WCI  14
$$

COZ069>075-171000-
...SAN LUIS VALLEY/SANGRE DE CRISTO MOUNTAINS...

CITY           SKY/WX    TMP DP  RH WIND       PRES   REMARKS
ALAMOSA        MOCLDY    31  28  89 S7        30.09S WCI  24
LA VETA PASS   NOT AVBL
SAGUACHE       CLOUDY    32  30  93 E5        30.10S WCI  27
$$

COZ035-036-038>040-171000-
...NORTHERN COLORADO FRONT RANGE...

CITY           SKY/WX    TMP DP  RH WIND       PRES   REMARKS
DENVER INTL AP MOCLDY    29  26  89 SE12      30.07F WCI  19
DMNS CITY PARK   N/A     37  30  77 SE3       30.07S
AURORA         PTCLDY    34  30  86 S15       30.07F WCI  24
FRONT RANGE AP NOT AVBL
ERIE MUNI ARPT CLEAR     37  31  81 S3        30.07S
BOULDER MUN AP CLEAR     37  30  75 SW3       30.06F
CENTENNIAL     CLEAR     33  28  81 S10       30.07F WCI  25
BROOMFIELD     CLEAR     36  32  87 CALM      30.07F
FORT COLLINS   CLEAR     36  30  80 CALM      30.08S
LONGMONT       CLEAR     34  30  87 SW3       30.08F
$$

COZ041-046-047-076>085-087-088-171000-
...PIKES PEAK/PALMER DIVIDE AND SOUTHERN FOOTHILLS...

CITY           SKY/WX    TMP DP  RH WIND       PRES   REMARKS
COLO. SPRINGS  LGT SNOW  34  32  92 S9        30.13F VSB 3/4 WCI  27
A. F. ACADEMY  FRZ DRZL  32  32 100 CALM      30.11F FOG
ELLICOTT       NOT AVBL
FALCON         CLOUDY    32  32  99 S7        30.13S FOG     WCI  26
FORT CARSON    CLOUDY    34  34  99 S5        30.13S WCI  30
LIMON          MOCLDY    35  32  88 S7        30.13S WCI  29
MONUMENT HILL  PTCLDY    30  28  93 S8        30.09S WCI  23
TRINIDAD       FLURRIES  35  33  92 NE6       30.14S WCI  30
$$

COZ042>045-048>051-090-091-171000-
...NORTHEAST COLORADO...

CITY           SKY/WX    TMP DP  RH WIND       PRES   REMARKS
GREELEY ARPT   CLEAR     36  27  69 SE10      30.09S
AKRON          MOCLDY    32  30  92 SE13      30.12S WCI  22
BURLINGTON     CLOUDY    37  32  82 E7        30.15S
WRAY           CLOUDY    34  32  93 E7        30.17S WCI  28
STERLING       MOCLDY    32  32 100 NE6       30.13S WCI  26
HOLYOKE        CLOUDY    34  32  93 E9        30.18R WCI  26
FORT MORGAN    MOCLDY    32  29  88 E7        30.11F WCI  26
$$

COZ086-089-092>099-171000-
...SOUTHEAST COLORADO...

CITY           SKY/WX    TMP DP  RH WIND       PRES   REMARKS
PUEBLO         CLOUDY    38  36  92 W6        30.15S
LA JUNTA       LGT RAIN  41  37  86 E10       30.15S
LAMAR          LGT RAIN  42  37  82 NE7       30.14R
SPRINGFIELD      N/A     40  35  83 NE13      30.12R
$$



USA.gov is the U.S. government's official web portal to all federal, state and local government web resources and services.